Zurück zum Katalog

STARLINK-34026

AktivKommunikationVLEO
NORAD 63842·PAYLOAD·🇺🇸 United States

Gestartet May 7, 2025 von Cape Canaveral Space Force Station

Loading…

Nächste Überflüge (nächste 24 Stunden)

TLE

AktuellSource: CelesTrak SupGP

Epoche: Sep 14, 2026, 23:02 UTC

1 63842C 25093G   26257.96020833  .00035999  00000+0  13042-2 0  2578
2 63842  43.0008  89.2324 0001499 276.1599 168.0615 15.27551125    12

Verfolge STARLINK-34026 in Echtzeit mit AllMySat

Download on the App Store